Location: ????????
(54.7960°N, 38.4708°E)
Time: 13:48:24
(UTC+00:00)

Daily predictions for brighter satellites

Satellite Brightness Start Highest point End
(mag) Time Altitude Azimuth Time Altitude Azimuth Time Altitude Azimuth
Cosmos 1725 Rocket 4.0 17:55:16 10° S 18:01:32 82° E 18:07:48 10° NNE
DEBRIS 3.8 17:59:58 10° SW 18:02:47 36° SSE 18:09:51 10° E
Cosmos 1331 Rocket 4.4 17:57:46 10° SW 18:02:59 72° WNW 18:08:12 10° NNE
Okean-O 2.6 17:59:29 10° SSE 18:03:52 86° ENE 18:08:17 10° NNW
Cosmos 2228 3.0 18:00:19 10° S 18:04:21 61° E 18:08:25 10° NNE
Tsikada Rocket 4.0 17:58:23 10° N 18:04:36 85° ENE 18:10:46 10° S
DNEPR-1 R/B 4.4 17:59:57 10° NW 18:05:05 70° NE 18:11:22 10° ESE
Cosmos 1452 Rocket 3.6 18:00:01 10° SSW 18:05:16 90° W 18:10:33 10° NNE
Cosmos 1437 Rocket 4.0 18:03:20 10° SE 18:06:04 21° E 18:08:48 10° NE
Meteor 1-27 4.2 18:03:57 10° S 18:09:35 85° E 18:15:12 10° NNE
Cosmos 2278 4.0 18:04:38 10° NNW 18:10:20 63° NE 18:16:00 10° SE
ADEOS 4.3 18:06:30 10° S 18:11:36 55° WSW 18:16:45 10° NNW
USA 186 1.4 18:09:44 10° SSE 18:12:28 83° WSW 18:15:15 10° NNW
Cosmos 1758 Rocket 3.7 18:08:58 10° N 18:13:21 63° ENE 18:17:44 10° SSE
SL-16 R/B 2.3 18:09:46 10° NNW 18:15:29 79° NE 18:21:10 10° SE
Cosmos 1302 Rocket 4.0 18:10:35 10° SSW 18:15:44 74° ESE 18:20:57 10° NNE
ISS -3.3 18:13:19 10° WSW 18:16:28 40° SSE 18:19:39 10° E
CZ-4C R/B 2.1 18:12:26 10° SW 18:16:55 83° NW 18:22:50 10° NE
Cosmos 2016 Rocket 4.1 18:10:43 10° S 18:16:58 87° W 18:23:12 10° N
EP 1 4.3 18:15:30 10° NW 18:18:08 69° NE 18:20:46 10° ESE
Cosmos 724 4.3 18:12:50 10° SW 18:18:51 81° SE 18:24:46 10° NE
NOSS 3 (A) 4.2 18:18:12 10° NW 18:20:13 55° NE 18:22:45 10° ESE
SL-08 R/B 3.4 18:17:42 10° NNE 18:22:35 89° ESE 18:27:21 10° SSW
CZ-4B R/B 2.6 18:20:18 10° SSE 18:23:38 63° ENE 18:27:06 10° N
NOSS 3-3 (C) 4.0 18:24:24 10° SSW 18:29:30 48° SE 18:35:35 10° NE
COSMOS 2406 3.6 18:24:33 10° S 18:29:58 45° ESE 18:35:24 10° NE
Cosmos 1980 Rocket 4.0 18:27:21 10° NW 18:31:56 26° WSW 18:36:31 10° SSW
USA 306 1.7 18:29:25 10° WSW 18:32:18 43° SSE 18:34:12 10° E
Meteor 1-20 Rocket 4.2 18:26:46 10° NNW 18:32:22 83° ENE 18:38:02 10° SSE
Terra 3.6 18:31:21 10° SSW 18:35:26 29° W 18:39:34 10° NNW
Helios 1A Rocket 4.3 18:34:01 10° N 18:36:53 31° WNW 18:39:43 10° SW
YAOGAN 11 4.1 18:32:35 10° NNE 18:37:02 84° ESE 18:41:30 10° SSW
Cosmos 1602 Rocket 3.6 18:33:32 10° N 18:37:49 64° ENE 18:41:56 11° SSE
NOSS 3-4 (A) 3.8 18:33:32 10° NW 18:40:00 88° SW 18:47:25 11° SE
Cosmos 2333 Rocket 2.3 18:34:55 10° NW 18:40:38 81° WSW 18:46:04 11° SSE
NOSS 3-4 (C) 3.8 18:34:10 10° NW 18:40:38 88° SW 18:48:04 11° SE
CZ-4 R/B 4.1 18:41:09 10° WSW 18:42:28 12° W 18:43:46 10° WNW
USA 245 4.4 18:37:55 10° SSE 18:43:48 78° WSW 18:49:21 10° NNW
Cosmos 2061 Rocket 4.1 18:40:49 10° SSW 18:47:04 83° W 18:53:25 10° N
Cosmos 1933 3.3 18:44:42 10° S 18:48:25 56° E 18:52:11 10° NNE
Cosmos 1464 Rocket 4.4 18:44:19 10° SSE 18:50:04 45° E 18:55:54 10° NNE
Cosmos 44 Rocket 4.3 18:45:23 10° WSW 18:50:26 55° NW 18:55:35 10° NE
ATLAS 2AS CENTAUR R/B 3.9 18:44:50 10° W 18:51:26 47° NNW 18:57:58 10° NE
Cosmos 1626 Rocket 4.2 18:50:12 10° NNW 18:54:27 53° W 18:58:42 10° S
Cosmos 1607 4.1 18:51:59 10° SW 18:58:12 81° NW 19:04:33 10° NE
SPOT 3 Rocket 3.9 18:53:13 10° S 18:58:19 64° WSW 19:03:27 10° NNW
Cosmos 2360 Rocket 2.2 18:53:00 10° NNW 18:58:44 86° ENE 19:03:37 14° SSE
Cosmos 1805 2.7 18:56:30 10° N 18:59:46 76° ENE 19:02:14 16° SSE
Ariane Rocket 3.2 18:57:02 11° S 19:01:57 74° WSW 19:07:03 10° NNW
Cosmos 1076 Rocket 4.0 18:58:45 10° N 19:02:52 45° ENE 19:06:00 16° SE
Cosmos 2098 Rocket 3.3 18:58:40 12° S 19:03:02 52° E 19:07:04 10° NNE
Cosmos 2333 4.3 18:57:56 10° NNW 19:03:41 82° NE 19:08:32 15° SE
Meteor 1-25 Rocket 4.3 18:58:35 10° NNW 19:04:17 78° W 19:09:34 12° S
BREEZE-M DEB (TANK) 2.3 19:03:09 10° SW 19:05:19 23° S 19:05:38 22° SSE
Cosmos 220 Rocket 4.1 19:04:11 10° S 19:08:06 50° ESE 19:12:06 10° NE
Cosmos 1536 4.2 19:06:58 10° N 19:10:01 24° ENE 19:12:23 14° ESE
Cosmos 2219 Rocket 2.3 19:07:13 10° NNW 19:12:55 75° NE 19:17:33 16° SE
Helios 1A 4.1 19:10:21 10° NE 19:13:36 24° E 19:15:28 17° SE
Cosmos 1606 Rocket 3.8 19:12:20 15° SSE 19:15:40 51° E 19:19:52 10° NNE
Cosmos 2151 4.0 19:13:17 10° NNW 19:17:10 41° W 19:21:01 10° SSW
Cosmos 1763 Rocket 4.3 19:15:44 16° SSE 19:19:17 34° ESE 19:24:01 10° NE
Helios 1B rocket 3.2 19:18:06 16° ESE 19:20:19 32° ENE 19:23:29 10° N
Okean 1 3.5 19:18:42 20° SSE 19:20:50 43° E 19:24:16 10° NNE
Okean O Rocket 3.7 19:17:49 10° SW 19:21:03 21° W 19:24:19 10° NW
Cosmos 990 Rocket 4.0 19:18:49 10° NNW 19:24:00 78° ENE 19:27:52 18° SSE
Cosmos 1726 Rocket 3.8 19:22:24 19° SSE 19:24:59 45° E 19:28:52 10° NNE
Cosmos 2034 Rocket 4.3 19:22:29 15° SSE 19:27:38 56° E 19:33:48 10° NNE
TSX-5 4.4 19:26:29 10° NNW 19:29:23 36° NE 19:31:39 15° ESE
Cosmos 2322 Rocket 2.5 19:24:07 10° NW 19:29:41 59° WSW 19:33:58 17° S
Okean 1-7 Rocket 3.8 19:25:39 10° NNW 19:30:06 69° W 19:33:33 17° S
Cosmos 1461 2.4 19:26:41 10° SW 19:30:22 71° SE 19:34:02 10° NE
RESURS DK-1 3.6 19:26:59 10° NNW 19:30:39 33° NE 19:34:01 11° ESE
CZ-2C R/B 3.4 19:30:01 15° SSW 19:31:51 31° W 19:34:24 10° NNW
Cosmos 1470 4.3 19:29:39 10° NNE 19:32:08 19° ENE 19:33:54 13° ESE
CZ-4B R/B 4.4 19:27:58 10° SSW 19:32:22 39° W 19:36:56 10° NNW
Cosmos 1777 Rocket 4.4 19:30:01 10° NNW 19:35:09 55° WSW 19:39:00 17° S
Cosmos 2082 Rocket 3.4 19:30:51 10° WSW 19:36:20 47° NW 19:41:52 10° NNE
GRACE-FO 1 4.4 19:37:11 21° S 19:39:26 83° W 19:42:57 10° N
GRACE-FO 2 4.5 19:37:39 21° S 19:39:54 82° W 19:43:25 10° N
Cosmos 1437 Rocket 3.8 19:37:08 10° SW 19:40:31 40° WNW 19:43:57 10° N
Cosmos 1975 4.4 19:38:04 10° NNE 19:40:58 21° ENE 19:43:05 14° ESE
Cosmos 1503 Rocket 4.3 19:37:00 10° NNW 19:42:09 61° WSW 19:45:44 19° S
Cosmos 909 Rocket 4.4 19:36:21 10° SW 19:42:37 71° NW 19:49:24 10° NE
Nadezhda 4 Rocket 4.2 19:36:43 10° NNW 19:42:47 67° W 19:47:52 15° S
Cosmos 2237 Rocket 3.6 19:42:31 10° NNW 19:47:39 33° NE 19:52:45 10° ESE
NOSS 3-3 (A) 4.2 19:43:26 10° WSW 19:48:55 69° NNW 19:55:40 10° NE
Cosmos 44 3.5 19:45:25 10° NW 19:50:52 85° SW 19:54:37 20° SE
Cosmos 1634 Rocket 4.4 19:48:18 20° SSE 19:52:24 49° E 19:58:21 10° NNE
ISS -3.5 19:49:45 10° W 19:53:00 47° S 19:54:30 26° SE
Cosmos 1354 Rocket 4.2 19:50:32 10° NNW 19:55:45 66° WSW 19:59:07 22° S
Cosmos-2242 3.1 19:54:02 25° SSE 19:56:14 54° E 20:00:16 10° NNE
COSMOS 2428 3.1 19:50:46 10° NNW 19:56:26 60° NE 20:00:53 16° SE
SL-16 R/B 3.8 19:54:32 10° NW 19:58:59 24° WSW 20:03:19 10° SSW
USA 306 2.9 19:57:01 10° W 19:58:04 20° W 19:58:04 20° W
CZ-2C R/B 4.3 19:56:14 10° ESE 20:00:26 25° NE 20:04:36 10° N
KORONAS-FOTON 4.3 19:59:46 28° SE 20:00:51 36° E 20:04:00 10° NNE
USA 290 2.0 20:01:14 24° SSW 20:03:00 88° ESE 20:06:10 10° NNE
Cosmos 1707 2.0 20:04:33 41° SSE 20:05:18 60° E 20:08:06 10° NNE
Cosmos 2026 Rocket 4.1 19:59:23 10° NNW 20:05:47 77° W 20:10:23 20° S
CZ-4C R/B 3.7 20:01:05 10° W 20:05:51 40° N 20:12:01 10° ENE
Cosmos 372 Rocket 3.9 20:02:23 10° NNW 20:07:33 82° ENE 20:10:44 23° SSE
Cosmos 1953 Rocket 4.0 20:05:50 10° NNW 20:10:07 55° W 20:12:42 22° SSW
COSMOS 2406 4.2 20:08:43 10° WSW 20:14:17 48° NW 20:19:51 10° NNE
Aureole 1 Rocket 3.9 20:10:59 10° NNW 20:16:27 73° WSW 20:20:45 23° SSE
Meteor 1-14 Rocket 4.3 20:12:25 10° N 20:17:59 67° ENE 20:21:27 23° SSE
Cosmos 1271 Rocket 3.2 20:19:22 30° SE 20:20:15 35° E 20:23:23 10° NNE
Cosmos 2221 3.5 20:18:37 24° SE 20:20:17 32° E 20:24:02 10° NNE
GP-B 4.4 20:18:26 10° NNE 20:22:13 28° E 20:24:23 19° ESE
Cosmos 540 Rocket 3.4 20:18:42 17° SSW 20:22:40 85° ESE 20:27:51 10° NNE
Cosmos 2058 Rocket 3.0 20:20:44 26° S 20:23:09 84° E 20:27:31 10° NNE
Cosmos 2333 Rocket 4.2 20:20:20 10° WNW 20:24:06 18° W 20:27:52 10° SW
Cosmos 1937 Rocket 3.6 20:20:12 10° NNW 20:25:21 67° ENE 20:28:40 22° SE
Cosmos 1766 3.6 20:25:04 10° NNW 20:28:07 40° W 20:29:18 27° SW
Geosat 4.0 20:25:10 10° NNE 20:30:12 89° WNW 20:34:37 13° SW
Spot 4 3.8 20:28:46 27° SSE 20:31:25 89° ENE 20:36:15 10° NNW
ARGOS Delta rocket 4.4 20:27:54 10° NNE 20:32:53 50° E 20:35:39 26° SSE
BREEZE-M R/B 4.3 20:26:19 10° W 20:33:42 55° SSW 20:39:21 10° ESE
Cosmos 468 Rocket 4.1 20:30:46 24° S 20:33:55 65° ESE 20:39:08 10° NNE
Cosmos 1842 2.7 20:33:12 43° SSE 20:34:01 63° E 20:37:09 10° NNE
Cosmos 1833 4.2 20:29:39 13° SSW 20:34:49 88° WNW 20:40:30 10° NNE
ARIANE 5 R/B 2.6 20:34:30 29° S 20:36:46 83° WSW 20:41:16 10° NNW
CZ-2C R/B 4.3 20:32:01 10° NNE 20:37:10 33° E 20:40:12 21° SE
Cosmos 2297 Rocket 3.7 20:35:27 18° SE 20:37:34 22° ESE 20:41:47 10° NE
ALOS 2 2.6 20:35:46 29° SSE 20:38:00 86° ENE 20:42:26 10° NNW
Meteor 2-6 Rocket 4.4 20:35:51 24° S 20:39:37 75° E 20:45:35 10° NNE
USA 234 3.9 20:35:53 10° ENE 20:41:45 34° SE 20:44:47 23° S
Cosmos 2360 Rocket 3.9 20:37:50 10° NW 20:42:04 22° WSW 20:45:21 13° SW
Cosmos 2322 3.7 20:36:24 10° NW 20:42:05 71° WSW 20:45:23 26° SSE
ATLAS 2AS CENTAUR R/B 4.0 20:37:15 10° WNW 20:43:41 41° N 20:50:04 10° ENE
Cosmos 1536 3.6 20:41:57 10° NNW 20:45:23 37° W 20:46:54 25° SW
Helios 1A 3.8 20:44:42 10° N 20:48:27 43° WNW 20:51:10 17° SW
Helios 1B rocket 3.5 20:52:03 21° SW 20:53:20 27° W 20:56:21 10° NW
PSLV R/B 3.7 20:51:12 10° NNE 20:55:25 59° ESE 20:57:18 31° SSE
Cosmos 2219 Rocket 3.6 20:51:45 10° NW 20:56:21 26° WSW 20:59:14 17° SW
Cosmos 1898 Rocket 3.7 20:51:51 10° NNW 20:56:57 59° WSW 20:59:35 28° S
SeaSat 1 3.1 20:55:07 12° ESE 20:59:28 51° NE 21:04:14 10° NNW
Meteor 1-19 Rocket 4.4 20:57:24 26° S 21:00:43 68° E 21:06:39 10° NNE
Cosmos 1763 Rocket 4.2 20:55:41 10° SW 21:00:50 52° NW 21:06:00 10° NNE
Cosmos 1766 Rocket 4.3 20:57:04 10° N 21:01:11 43° ENE 21:03:33 22° SE
Cosmos 1470 3.2 21:03:06 10° NNW 21:06:12 38° W 21:07:06 31° SW
RESURS DK-1 2.8 21:04:19 10° NW 21:08:06 42° WSW 21:09:14 33° SSW
Cosmos 2322 Rocket 4.4 21:10:21 10° WNW 21:12:34 12° W 21:14:46 10° WSW
NOSS 0 Rocket 4.0 21:06:30 10° NW 21:12:37 63° WSW 21:16:09 26° S
NOSS 8 (H) 4.0 21:11:36 10° NW 21:14:26 62° SW 21:14:47 55° S
BREEZE-M DEB (TANK) 3.8 21:08:56 10° W 21:15:22 42° SSW 21:20:11 10° ESE
Cosmos 1975 3.3 21:12:37 10° NNW 21:16:07 42° W 21:17:20 31° SW
Intercosmos 24 3.7 21:14:17 10° N 21:18:28 78° ENE 21:19:54 35° SSE
MetOp-A 3.8 21:16:05 29° S 21:18:36 78° WSW 21:23:18 10° NNW
SL-16 R/B 3.4 21:13:55 10° NNW 21:19:19 41° NE 21:24:42 10° ESE
Lacrosse 4 Rocket 2.9 21:25:45 20° SE 21:26:29 21° ESE 21:29:32 10° ENE
ISS -1.6 21:26:36 10° W 21:27:26 15° WSW 21:27:26 15° WSW
SAR-Lupe-2 4.5 21:29:02 28° SW 21:29:46 32° W 21:32:49 10° NNW
Cosmos 841 Rocket 3.5 21:29:05 25° SSW 21:32:10 89° WNW 21:37:27 10° NNE
Cosmos 2237 Rocket 2.2 21:26:32 10° NW 21:32:13 74° WSW 21:35:40 24° SSE
Cosmos 2279 Rocket 4.5 21:29:54 19° SW 21:34:21 55° WNW 21:40:31 10° N
Cosmos 1812 Rocket 3.7 21:33:38 29° SSW 21:35:48 68° WNW 21:40:14 10° N
Meteor 1-11 Rocket 4.0 21:30:19 10° NNW 21:35:53 56° W 21:38:54 26° SSW
Cosmos 1980 3.7 21:30:38 10° NW 21:36:15 66° WSW 21:39:29 26° SSE
NOSS 8 (E) 4.1 21:34:54 10° WNW 21:37:46 54° SW 21:38:00 52° SSW
Meteor 2-20 Rocket 4.4 21:36:40 26° S 21:39:58 67° E 21:45:39 10° NNE
CZ-2C R/B 2.6 21:37:19 27° S 21:40:14 74° WSW 21:45:28 10° NNW
COSMOS 2428 3.6 21:35:21 10° NW 21:40:24 33° WSW 21:42:51 24° SSW
CZ-4C R/B 4.2 21:38:06 10° NE 21:41:08 30° E 21:42:10 25° SE
ACS3 Solar Sail 2.6 21:35:37 10° NNE 21:41:10 38° E 21:45:00 19° SSE
Meteor 2-4 Rocket 3.9 21:41:22 26° S 21:44:23 61° E 21:49:51 10° NNE
Meteor 1-10 Rocket 4.4 21:40:49 24° SSW 21:44:30 76° WNW 21:50:29 10° NNE
Cosmos 2227 Rocket 3.3 21:44:30 20° SSE 21:47:19 31° ESE 21:52:13 10° NE
Meteor 2-20 4.4 21:45:33 25° SSW 21:49:20 82° WNW 21:55:28 10° N
Okean 3 Rocket 4.2 21:46:17 10° N 21:50:44 53° ENE 21:53:39 20° SE
NOSS 8 (F) 4.4 21:50:15 10° WNW 21:53:03 43° SW 21:53:03 43° SW
Cosmos 1271 Rocket 4.4 21:52:42 15° WSW 21:54:34 22° WNW 21:57:17 10° N
CZ-4C R/B 3.9 21:49:54 10° WNW 21:55:21 42° NNE 22:02:22 10° E
Cosmos 192 4.3 21:51:29 10° NNW 21:56:27 79° WSW 21:59:23 24° SSE
Cosmos 2221 3.7 21:54:54 19° WSW 21:57:17 34° WNW 22:01:08 10° N
Cosmos 2263 Rocket 3.6 21:56:11 16° SE 21:59:13 25° ESE 22:03:39 10° NE
GP-B 3.8 21:55:16 10° N 21:59:24 42° W 22:01:32 24° SW
Meteor 1-27 Rocket 3.8 21:56:56 25° SSW 22:00:28 83° WNW 22:06:15 10° NNE
Cosmos 1842 Rocket 3.8 22:01:31 28° SSE 22:03:40 61° E 22:08:03 10° NNE
Cosmos 1238 Rocket 2.8 22:02:31 33° SSW 22:04:15 79° W 22:08:40 10° N
Cosmos 1805 Rocket 4.2 22:06:27 10° N 22:10:42 51° ENE 22:13:48 17° SE
Sich 1 2.9 22:09:53 10° NNW 22:14:04 88° ENE 22:16:18 27° SSE
Iridium 4 Rocket 3.8 22:11:57 24° S 22:15:30 88° E 22:21:22 10° N
Landsat 5 3.4 22:13:00 10° NNE 22:17:09 81° WNW 22:19:05 30° SSW
CZ-2C R/B 3.7 22:11:36 10° N 22:17:12 58° WNW 22:21:10 20° SW
Cosmos 2297 Rocket 2.2 22:17:12 22° SW 22:20:56 86° WNW 22:26:38 10° NNE
SL-19 R/B 4.5 22:19:08 21° SE 22:20:57 49° ENE 22:24:06 10° N
Cosmos 1655 Rocket 4.3 22:16:45 10° NNW 22:22:48 55° W 22:26:42 23° SSW
Cosmos 1758 3.0 22:19:43 10° N 22:23:22 82° ENE 22:25:10 28° SSE
USA 234 3.2 22:18:51 10° ENE 22:25:26 76° SSE 22:32:00 10° WSW
Alouette 2 Rocket 4.4 22:30:30 10° NW 22:33:50 32° W 22:35:30 23° SW
Cosmos 1408 Rocket 3.5 22:31:04 10° N 22:35:22 85° ENE 22:38:11 21° SSE
ATLAS 2AS CENTAUR R/B 3.0 22:28:44 10° NW 22:35:32 71° NE 22:42:20 10° ESE
Cosmos 1340 Rocket 2.8 22:32:52 10° N 22:36:43 74° ENE 22:39:16 20° SSE
SeaSat 1 3.1 22:34:43 24° SSW 22:36:59 37° WSW 22:41:32 10° NW
Meteor 2-10 Rocket 4.0 22:32:17 10° NNW 22:37:35 50° W 22:40:59 22° SSW
Iridium 45 4.4 22:37:59 30° S 22:39:37 89° E 22:43:04 10° N
SL-14 R/B 3.1 22:38:08 28° S 22:40:03 85° E 22:43:53 10° NNE
Cosmos 1125 Rocket 3.5 22:38:50 10° NNW 22:44:09 78° WSW 22:48:46 14° SSE
BlueWalker 3 2.6 22:43:33 28° S 22:44:17 31° SSE 22:47:27 10° E
Cosmos 1066 Rocket 4.2 22:40:54 22° SSW 22:44:25 70° WNW 22:49:58 10° N
Meteor 1-18 Rocket 4.3 22:49:51 21° SSW 22:53:40 75° WNW 22:59:23 10° NNE
DELTA 2 DEB (DPAF) 4.0 22:50:34 10° N 22:54:03 53° WNW 22:55:55 24° SW
Cosmos 2084 3.3 22:50:44 10° NW 22:54:48 58° SW 22:58:51 10° SSE
Cosmos 1814 Rocket 4.1 22:59:05 20° SW 23:02:45 70° WNW 23:08:01 10° NNE
Cosmos 1953 2.8 22:59:42 10° N 23:03:18 51° ENE 23:06:50 10° SSE
SL-16 R/B 2.4 22:58:05 10° NW 23:03:38 54° WSW 23:08:39 12° S
Lacrosse 4 Rocket 1.5 23:01:08 20° SW 23:03:50 67° NW 23:07:57 10° NE
BREEZE-M DEB (TANK) 3.7 23:07:01 23° SSW 23:07:17 23° S 23:11:30 10° SE
CZ-2D R/B 4.3 23:04:33 10° NE 23:08:25 20° E 23:12:17 10° SE
IDEFIX/ARIANE 42P 3.0 23:03:16 10° NNE 23:08:27 58° ESE 23:12:47 15° S
Cosmos 2219 3.9 23:04:46 15° S 23:09:02 44° ESE 23:14:21 10° NE
NPP 4.3 23:08:21 10° NNE 23:13:38 51° E 23:18:30 12° S
CZ-4C R/B 4.4 23:11:00 10° N 23:13:53 27° WNW 23:15:55 16° WSW
Cosmos 2237 Rocket 3.9 23:11:59 10° WNW 23:15:19 16° W 23:17:27 13° WSW
H-2A R/B 4.4 23:12:24 10° NE 23:16:13 19° E 23:20:04 10° SE
Cosmos 1633 Rocket 3.5 23:13:29 10° N 23:17:47 59° ENE 23:22:02 10° SSE
Cosmos 1151 Rocket 3.1 23:15:33 20° SSW 23:18:27 66° WNW 23:22:46 10° N
Cosmos 1500 Rocket 4.1 23:15:44 10° NNW 23:19:56 42° W 23:22:48 18° SSW
S3M 4.1 23:14:46 14° S 23:20:13 78° E 23:26:23 10° NNE
PSLV R/B 4.2 23:18:00 10° N 23:21:48 53° WNW 23:24:24 19° SW
ACS3 Solar Sail 2.2 23:17:57 10° N 23:23:41 51° WNW 23:28:30 15° SW
Meteor 1-22 Rocket 4.2 23:19:12 10° NNW 23:25:05 77° W 23:30:41 10° S
CENTAUR R/B 4.0 23:20:43 10° SSE 23:25:12 25° ESE 23:30:31 10° ENE
Cosmos 2315 Rocket 4.2 23:22:19 11° S 23:28:24 73° E 23:34:43 10° NNE
Cosmos 2227 Rocket 2.5 23:26:17 15° SW 23:31:00 65° NW 23:36:41 10° NNE
DMSP B5D2-2 4.5 23:27:08 10° SSE 23:32:17 66° ENE 23:37:29 10° NNW
H-2A R/B 3.9 23:31:12 10° SE 23:34:24 32° ENE 23:37:41 10° N
Envisat 4.3 23:31:22 10° NNE 23:36:02 36° E 23:40:40 10° SSE
Cosmos 2263 Rocket 2.3 23:37:50 15° SW 23:42:35 77° NW 23:48:12 10° NNE
BREEZE-M DEB (TANK) 3.1 23:35:49 10° WSW 23:44:00 45° S 23:47:11 10° ESE
MSX 3.9 23:38:24 10° NNE 23:44:13 82° WNW 23:49:33 12° SSW
CZ-4C R/B 3.0 23:38:05 10° NW 23:44:26 78° NE 23:52:38 10° SE
Cosmos 1709 Rocket 4.1 23:39:14 10° NNW 23:45:16 59° W 23:51:22 10° S
SL-16 R/B 4.4 23:42:07 10° ESE 23:47:37 34° NE 23:53:07 10° N
Cosmos 1666 Rocket 3.6 23:44:54 10° NNW 23:49:18 63° W 23:53:41 10° S
Cosmos 1943 3.2 23:43:51 10° NW 23:49:23 59° WSW 23:54:52 10° SSE
Meteor 1-15 Rocket 4.4 23:45:17 10° NNW 23:51:11 70° W 23:57:04 10° S
Cosmos 1867 3.5 23:46:01 10° NW 23:51:29 71° SW 23:56:55 10° SSE
Cosmos 1743 Rocket 4.5 23:49:10 10° NNW 23:52:59 31° W 23:56:11 13° SSW
NOSS 7 (H) 4.4 23:52:05 10° WNW 23:54:54 42° SW 23:57:49 10° SSE
